Location: Coll
(42.4728°N, 0.7714°E)
Time: 10:58:04
(UTC+00:00)

CZ-4B R/B - Pass Details

Date: 23 October 2020
Orbit: 489 x 649 km, 97.9° (Epoch: 30 November)

Event Time Altitude Azimuth Distance (km) Brightness Sun altitude
Rises 05:49:16 0° 2° (N) 2,690 6.3 -6.3°
Reaches altitude 10° 05:51:29 10° 352° (N) 1,820 5.3 -5.9°
Maximum altitude 05:55:00 32° 289° (WNW) 982 3.6 -5.3°
Drops below altitude 10° 05:58:39 10° 226° (SW) 1,894 5.2 -4.6°
Sets 06:01:00 0° 217° (SW) 2,818 6.2 -4.2°
